STARLINK-35783 (66286 NORAD) Tracking and Keplerian Element Data

This shows tracking and keplerian element data for the satellite.

Feedback or suggestion? Click here.




ElementValue
Catalog66286
NameSTARLINK-35783
Epoch Orbit881
Epoch Day354.00185021
Epoch Year2025
RAAN202.9587
Inclination53.1577
Eccentricity9.24E-05
Argument of Perigee74.4332
Mean Anonmoly285.6774
Mean Motion15.39622724
Decay Rate0.00029732
L11 66286U 25247X 25354.00185021 .00029732 00000+0 75031-3 0 9995
L22 66286 53.1577 202.9587 0000924 74.4332 285.6774 15.39622724 8816



Live tracking and technical data element details for STARLINK-35783 (NORAD 66286). STARLINK-35783 can be tracked NOW for your location showing map with azimuth and elevation plus other details from your city location.







IsCatalogInMostPopularTable: catalog: 66286, numindb: 10
Update: records affected: 1



GetName: 66286 STARLINK-35783

Hit Count: updated at: Sun, 19 Apr 2026 07:40:44 GMT